Davis Station, SC

11:49 AM EDT on August 25, 2016 (GMT -0400)
Santee Cooper Regional

Weather History for KMNI - December, 2012

Change the Weather History Date:

Tuesday, December 4, 2012

  Actual Average (KCKI) Record (KCKI)
Temperature  
Mean Temperature 62 °F -  
Max Temperature 75 °F 61 °F 77 °F (2012)
Min Temperature 50 °F 33 °F 30 °F (2010)
Degree Days  
Heating Degree Days 2    
Growing Degree Days 12 (Base 50)    
Moisture  
Dew Point 55 °F    
Average Humidity 85    
Maximum Humidity 100    
Minimum Humidity 53    
Precipitation  
Precipitation 0.00 in - - ()
Sea Level Pressure  
Sea Level Pressure 30.28 in    
Wind  
Wind Speed 1 mph (South)    
Max Wind Speed 8 mph    
Max Gust Speed -    
Visibility 8 miles    
Events      
Averages and records for this station are not official NWS values.
T = Trace of Precipitation, MM = Missing Value Source: NWS Daily Summary

Daily Weather History Graph

Daily Weather History Graph

Search for Another Location

Airport or City:

Trip Planner

Search our weather history database for the weather conditions in past years. The results will help you decide how hot, cold, wet, or windy it might be!

Date:

Astronomy

Dec. 04, 2012 Rise Set
Actual Time 7:10 AM EST 5:12 PM EST
Civil Twilight 6:42 AM EST 5:39 PM EST
Nautical Twilight 6:11 AM EST 6:10 PM EST
Astronomical Twilight 5:41 AM EST 6:40 PM EST
Moon 10:47 PM EST (12/4) 11:13 AM EST (12/4)
Length of Visible Light 10h 57m
Length of Day
10h 02m
Waning Gibbous, 69% of the Moon is Illuminated
Dec 4
Waning Gibbous
Dec 6
Last Quarter
Dec 13
New
Dec 20
First Quarter
Dec 28
Full

Hourly Weather History & Observations

Time (EST) Temp. Dew Point Humidity Pressure Visibility Wind Dir Wind Speed Gust Speed Precip Events Conditions
12:15 AM 51.8 °F 51.8 °F 100% 30.30 in 10.0 mi Calm Calm - N/A   Scattered Clouds
12:35 AM 51.8 °F 51.8 °F 100% 30.29 in 7.0 mi Calm Calm - N/A   Scattered Clouds
12:55 AM 51.8 °F 51.8 °F 100% 30.29 in 5.0 mi Calm Calm - N/A   Clear
1:15 AM 51.8 °F 51.8 °F 100% 30.29 in 5.0 mi Calm Calm - N/A   Clear
1:35 AM 51.8 °F 51.8 °F 100% 30.29 in 0.8 mi Calm Calm - N/A   Overcast
1:55 AM 51.8 °F 51.8 °F 100% 30.29 in 10.0 mi Calm Calm - N/A   Overcast
2:15 AM 51.8 °F 51.8 °F 100% 30.29 in 10.0 mi Calm Calm - N/A   Mostly Cloudy
2:35 AM 51.8 °F 51.8 °F 100% 30.29 in 5.0 mi Calm Calm - N/A   Mostly Cloudy
2:55 AM 51.8 °F 51.8 °F 100% 30.29 in 7.0 mi Calm Calm - N/A   Overcast
3:15 AM 51.8 °F 51.8 °F 100% 30.28 in 2.0 mi Calm Calm - N/A   Overcast
3:55 AM 51.8 °F 51.8 °F 100% 30.28 in 2.5 mi Calm Calm - N/A   Overcast
4:15 AM 51.8 °F 51.8 °F 100% 30.29 in 2.0 mi Calm Calm - N/A   Overcast
4:35 AM 51.8 °F 51.8 °F 100% 30.29 in 5.0 mi Calm Calm - N/A   Overcast
4:55 AM 51.8 °F 51.8 °F 100% 30.29 in 5.0 mi Calm Calm - N/A   Overcast
5:15 AM 51.8 °F 51.8 °F 100% 30.29 in 4.0 mi Calm Calm - N/A   Overcast
5:35 AM 51.8 °F 51.8 °F 100% 30.30 in 0.8 mi Calm Calm - N/A   Overcast
5:55 AM 51.8 °F 51.8 °F 100% 30.30 in 0.5 mi Calm Calm - N/A   Overcast
6:15 AM 51.8 °F 51.8 °F 100% 30.31 in 2.0 mi Calm Calm - N/A   Overcast
6:35 AM 51.8 °F 51.8 °F 100% 30.31 in 1.8 mi Calm Calm - N/A   Overcast
6:55 AM 51.8 °F 50.0 °F 94% 30.31 in 2.0 mi Calm Calm - N/A   Overcast
7:15 AM 50.0 °F 50.0 °F 100% 30.32 in 5.0 mi Calm Calm - N/A   Overcast
7:35 AM 50.0 °F 50.0 °F 100% 30.33 in 0.8 mi Calm Calm - N/A   Overcast
7:55 AM 51.8 °F 51.8 °F 100% 30.33 in 1.0 mi Calm Calm - N/A   Overcast
8:15 AM 53.6 °F 51.8 °F 94% 30.33 in 4.0 mi Calm Calm - N/A   Scattered Clouds
8:35 AM 55.4 °F 55.4 °F 100% 30.34 in 5.0 mi Calm Calm - N/A   Scattered Clouds
8:55 AM 57.2 °F 57.2 °F 100% 30.34 in 10.0 mi Calm Calm - N/A   Mostly Cloudy
9:15 AM 60.8 °F 60.8 °F 100% 30.35 in 10.0 mi Calm Calm - N/A   Mostly Cloudy
9:35 AM 64.4 °F 62.6 °F 94% 30.35 in 10.0 mi Calm Calm - N/A   Mostly Cloudy
9:55 AM 68.0 °F 62.6 °F 83% 30.36 in 10.0 mi Calm Calm - N/A   Overcast
10:15 AM 69.8 °F 60.8 °F 73% 30.36 in 10.0 mi WSW 3.5 mph - N/A   Overcast
10:35 AM 69.8 °F 60.8 °F 73% 30.35 in 10.0 mi Calm Calm - N/A   Overcast
10:55 AM 71.6 °F 60.8 °F 69% 30.35 in 10.0 mi SSW 3.5 mph - N/A   Overcast
11:15 AM 71.6 °F 59.0 °F 64% 30.34 in 10.0 mi SSW 4.6 mph - N/A   Overcast
11:35 AM 71.6 °F 59.0 °F 64% 30.33 in 10.0 mi SSW 8.1 mph - N/A   Mostly Cloudy
11:55 AM 73.4 °F 59.0 °F 61% 30.31 in 10.0 mi SW 4.6 mph - N/A   Scattered Clouds
12:15 PM 73.4 °F 57.2 °F 57% 30.30 in 10.0 mi South 4.6 mph - N/A   Clear
12:35 PM 73.4 °F 59.0 °F 61% 30.29 in 10.0 mi SSE 8.1 mph - N/A   Clear
12:55 PM 73.4 °F 59.0 °F 61% 30.28 in 10.0 mi South 4.6 mph - N/A   Clear
1:15 PM 75.2 °F 59.0 °F 57% 30.28 in 10.0 mi South 5.8 mph - N/A   Clear
1:35 PM 75.2 °F 59.0 °F 57% 30.27 in 10.0 mi South 3.5 mph - N/A   Clear
1:55 PM 73.4 °F 59.0 °F 61% 30.26 in 10.0 mi South 4.6 mph - N/A   Scattered Clouds
2:15 PM 73.4 °F 59.0 °F 61% 30.25 in 10.0 mi South 3.5 mph - N/A   Overcast
2:35 PM 73.4 °F 59.0 °F 61% 30.25 in 10.0 mi South 3.5 mph - N/A   Overcast
2:55 PM 73.4 °F 57.2 °F 57% 30.25 in 10.0 mi Calm Calm - N/A   Mostly Cloudy
3:15 PM 73.4 °F 55.4 °F 53% 30.25 in 10.0 mi South 5.8 mph - N/A   Mostly Cloudy
3:35 PM 73.4 °F 57.2 °F 57% 30.24 in 10.0 mi Calm Calm - N/A   Mostly Cloudy
3:55 PM 73.4 °F 55.4 °F 53% 30.24 in 10.0 mi Calm Calm - N/A   Scattered Clouds
4:15 PM 73.4 °F 55.4 °F 53% 30.24 in 10.0 mi South 3.5 mph - N/A   Scattered Clouds
4:35 PM 71.6 °F 57.2 °F 60% 30.24 in 10.0 mi South 3.5 mph - N/A   Mostly Cloudy
4:55 PM 69.8 °F 57.2 °F 64% 30.24 in 10.0 mi South 3.5 mph - N/A   Scattered Clouds
5:15 PM 68.0 °F 57.2 °F 68% 30.24 in 10.0 mi Calm Calm - N/A   Clear
5:55 PM 62.6 °F 55.4 °F 77% 30.24 in 10.0 mi Calm Calm - N/A   Clear
6:15 PM 60.8 °F 55.4 °F 82% 30.25 in 10.0 mi Calm Calm - N/A   Clear
6:35 PM 60.8 °F 55.4 °F 82% 30.25 in 10.0 mi Calm Calm - N/A   Clear
6:55 PM 59.0 °F 57.2 °F 94% 30.25 in 10.0 mi Calm Calm - N/A   Clear
7:15 PM 59.0 °F 57.2 °F 94% 30.25 in 10.0 mi Calm Calm - N/A   Clear
7:35 PM 57.2 °F 55.4 °F 94% 30.25 in 10.0 mi Calm Calm - N/A   Clear
7:55 PM 57.2 °F 55.4 °F 94% 30.25 in 10.0 mi Calm Calm - N/A   Clear
8:15 PM 57.2 °F 55.4 °F 94% 30.25 in 10.0 mi Calm Calm - N/A   Clear
8:35 PM 55.4 °F 55.4 °F 100% 30.25 in 10.0 mi Calm Calm - N/A   Clear
8:55 PM 55.4 °F 42.8 °F 63% 30.26 in 10.0 mi Calm Calm - N/A   Clear
9:15 PM 55.4 °F 51.8 °F 88% 30.25 in 10.0 mi Calm Calm - N/A   Clear
9:35 PM 55.4 °F 51.8 °F 88% 30.26 in 10.0 mi Calm Calm - N/A   Clear
9:55 PM 57.2 °F 55.4 °F 94% 30.26 in 10.0 mi Calm Calm - N/A   Clear
10:15 PM 55.4 °F 53.6 °F 94% 30.26 in 10.0 mi Calm Calm - N/A   Clear
10:35 PM 55.4 °F 55.4 °F 100% 30.25 in 7.0 mi Calm Calm - N/A   Clear
10:55 PM 55.4 °F 53.6 °F 94% 30.25 in 10.0 mi Calm Calm - N/A   Clear
11:15 PM 53.6 °F 53.6 °F 100% 30.26 in 10.0 mi Calm Calm - N/A   Clear
11:35 PM 53.6 °F 53.6 °F 100% 30.25 in 10.0 mi Calm Calm - N/A   Clear
11:55 PM 53.6 °F 53.6 °F 100% 30.25 in 10.0 mi Calm Calm - N/A   Clear